Location: Rimouski
(48.4330°N, 68.5170°W)
Time: 00:23:40
(UTC-04:00)

Daily predictions for brighter satellites

Satellite Brightness Start Highest point End
(mag) Time Altitude Azimuth Time Altitude Azimuth Time Altitude Azimuth
Cosmos 2369 Rocket 4.5 02:48:34 19° NE 02:48:34 19° NE 02:50:10 10° NNE
USA 215 4.3 02:55:44 10° ENE 02:59:52 40° ENE 02:59:52 40° ENE
ADEOS II 4.3 03:01:22 10° NE 03:04:50 20° E 03:04:50 20° E
CZ-2D R/B 4.5 03:07:46 10° NNE 03:08:49 16° NNE 03:08:49 16° NNE
CENTAUR R/B 4.1 03:17:52 29° N 03:17:52 29° N 03:23:25 10° NE
USA 229 DEB 4.3 03:21:56 50° E 03:21:56 50° E 03:27:34 10° NE
USA 229 4.3 03:22:01 50° E 03:22:01 50° E 03:27:39 10° NE
Cosmos 1943 Rocket 3.6 03:34:43 33° NNE 03:34:43 33° NNE 03:37:42 10° NNE
ATLAS 3B R/B 4.4 03:32:07 20° NNW 03:34:19 24° NNE 03:39:36 10° ENE
USA 267 3.9 03:28:42 10° SE 03:33:00 45° SE 03:33:00 45° SE
SJ 16-02 3.6 03:58:56 19° ESE 04:00:13 22° E 04:03:34 10° NE
Resurs 1-4 Rocket 4.2 04:12:12 10° N 04:13:25 16° NNW 04:13:25 16° NNW
Cosmos 1937 Rocket 4.3 04:22:46 42° N 04:22:46 42° N 04:26:31 10° NNE
Cosmos 2227 Rocket 3.0 04:22:57 10° NNW 04:28:29 49° NE 04:33:58 10° SE
Cosmos 2341 Rocket 3.9 04:22:23 10° N 04:28:50 90° W 04:35:14 10° S
Cosmos 2369 Rocket 3.5 04:30:23 26° NNW 04:30:23 26° NNW 04:33:52 10° NNE
Cosmos 2181 Rocket 4.3 04:26:15 10° S 04:32:22 65° E 04:38:28 10° NNE
Cosmos 1125 Rocket 4.0 04:33:57 29° S 04:36:33 60° ESE 04:41:47 10° NNE
Lacrosse 5 3.0 04:36:58 31° NNW 04:37:29 31° N 04:42:01 10° ENE
Nadezhda 1 Rocket 4.1 04:40:55 52° WNW 04:41:02 52° WNW 04:47:13 10° N
USA 215 3.4 04:38:50 10° NE 04:45:15 60° NNW 04:47:13 43° WNW
ADEOS II 2.0 04:40:10 10° N 04:45:24 65° WNW 04:45:47 62° W
Cosmos 1656 Rocket 3.7 04:49:54 53° WNW 04:50:26 55° WNW 04:56:01 10° NNE
CZ-2D R/B 4.2 04:49:23 10° NNW 04:50:09 12° NNW 04:50:09 12° NNW
Cosmos 1758 Rocket 4.3 04:54:49 38° NNW 04:54:49 38° NNW 04:57:57 10° N
Cosmos 158 Rocket 4.1 04:53:45 53° WSW 04:53:45 53° WSW 04:58:50 10° S
Okean O Rocket 1.6 04:50:19 10° NNE 04:54:45 85° ESE 04:56:59 29° SSW
Cosmos 2219 3.5 05:00:19 43° WSW 05:00:19 43° WSW 05:05:18 10° S
DEBRIS 3.9 04:56:10 33° WSW 05:00:16 87° SSE 05:03:54 10° ENE
Cosmos 1048 Rocket 4.0 05:00:08 43° WNW 05:01:26 54° WSW 05:06:32 10° S
Meteor 2-21 4.3 04:57:40 10° NNW 05:03:39 62° W 05:09:38 10° S
ATLAS CENTAUR R/B 3.5 05:01:28 11° N 05:03:58 20° NE 05:06:50 10° E
Meteor 1-31 Rocket 3.3 05:00:36 10° NNE 05:04:22 57° E 05:08:06 10° S
Cosmos 1356 Rocket 3.4 05:04:37 57° WSW 05:05:06 62° WNW 05:09:25 10° N
Cosmos 1707 4.4 05:07:40 21° NNW 05:07:40 21° NNW 05:09:15 10° N
Cosmos 2297 Rocket 2.3 05:00:06 10° NNW 05:05:47 75° ENE 05:11:26 10° SSE
Cosmos 2221 4.1 05:01:47 10° N 05:05:54 37° ENE 05:09:59 10° SE
IRS-1C Rocket 4.2 05:01:27 10° NNE 05:06:46 77° ESE 05:12:02 10° S
NOSS 3-1 (C) 3.4 05:05:14 36° WSW 05:07:50 72° NW 05:14:34 10° NE
In-Cosmos 22 4.5 05:04:20 10° S 05:09:57 71° E 05:15:42 10° NNE
CENTAUR R/B 4.4 05:05:03 13° NW 05:10:02 26° N 05:16:27 10° ENE
Cosmos 2251 Rocket 4.3 05:04:46 10° NNW 05:10:04 54° ENE 05:15:20 10° SE
Cosmos 2366 rocket 3.9 05:04:32 10° N 05:10:44 90° WSW 05:16:55 10° S
USA 229 DEB 4.1 05:09:24 33° W 05:11:59 46° NW 05:18:44 10° NE
USA 229 4.1 05:09:29 33° W 05:12:04 46° NW 05:18:49 10° NE
COSMO-SKYMED 1 3.6 05:10:53 10° SE 05:15:02 47° ENE 05:19:14 10° N
Okean-O 4.2 05:11:22 10° NNE 05:15:30 37° E 05:19:36 10° SSE
NOSS 3-1 (A) 3.4 05:11:56 25° SW 05:15:33 83° NW 05:22:19 10° NE
Cosmos 1943 Rocket 3.5 05:16:16 21° NW 05:16:37 21° NW 05:20:50 10° N
Cosmos 2082 3.7 05:10:57 10° NNW 05:16:40 85° ENE 05:22:18 10° SSE
Cosmos 1908 3.8 05:14:43 10° N 05:18:33 58° ENE 05:22:19 10° SSE
USA 267 4.0 05:13:13 10° S 05:18:49 30° SW 05:20:22 27° WSW
Intercosmos 24 4.0 05:16:27 10° NNW 05:21:09 54° W 05:24:47 10° S
SL-8 Rocket 4.0 05:15:57 10° NNW 05:22:08 58° W 05:28:18 10° S
Meteor 2-14 Rocket 4.4 05:17:22 10° NNW 05:23:17 56° W 05:29:11 10° S
Cosmos 1842 Rocket 3.4 05:19:12 10° NNW 05:23:34 70° W 05:27:52 10° S
CZ-4B DEB 4.1 05:19:25 10° N 05:24:52 65° WNW 05:30:19 10° SSW
ATLAS 3B R/B 3.4 05:20:05 10° NW 05:26:41 49° NE 05:33:01 10° ESE
PAYLOAD B 4.2 05:22:01 10° N 05:27:27 60° WNW 05:32:51 10° SSW
Meteor 2-16 Rocket 4.4 05:23:39 10° NNW 05:29:41 59° W 05:35:42 10° S
Meteor PRIRODA 3.6 05:26:00 10° N 05:29:44 62° WNW 05:33:26 10° SSW
EO 1 Del DPAF 3.2 05:27:19 10° SSE 05:31:10 87° ENE 05:35:02 10° NNW
CZ-4B R/B 3.2 05:27:43 10° N 05:33:06 61° WNW 05:38:35 10° SSW
Landsat 4 3.9 05:29:58 10° S 05:33:37 47° W 05:37:17 10° NNW
Cosmos 864 Rocket 4.4 05:30:45 10° NNW 05:36:52 62° W 05:42:54 10° S
CZ-2C R/B 3.6 05:33:26 10° N 05:37:05 84° E 05:48:23 10° S
SJ 16-02 1.6 05:36:01 22° SW 05:38:32 44° WNW 05:42:46 10° N
PSLV R/B 4.5 05:35:12 10° N 05:38:50 27° WNW 05:39:37 26° W
Meteor 2-5 Rocket 4.2 05:35:42 10° SW 05:41:11 40° WNW 05:46:38 10° N
Cosmos 1300 4.5 05:37:51 10° N 05:41:24 34° ENE 05:44:55 10° SE
Meteor 2-1 Rocket 4.3 05:35:55 10° NNW 05:41:44 58° W 05:47:25 10° S
Meteor 1-28 Rocket 3.3 05:39:37 10° S 05:43:21 52° W 05:47:07 10° NNW
Cosmos 2369 4.0 05:38:37 10° SSW 05:44:14 72° ESE 05:49:53 10° NNE
Cosmos 372 Rocket 4.4 05:45:23 13° SW 05:49:43 41° WNW 05:54:43 10° NNE
CZ-2C R/B 4.3 05:47:54 10° SSW 05:52:17 37° W 05:56:38 10° NNW
USA 81 4.5 05:47:42 10° SW 05:52:37 39° WNW 05:57:34 10° N
Cosmos 2218 Rocket 4.4 05:49:05 10° NNW 05:54:51 40° W 06:00:39 10° SSW
CZ-4B R/B 4.4 05:53:43 10° NNW 05:55:21 15° NW 05:55:21 15° NW
USA 116 4.4 05:53:20 10° SSW 05:56:52 35° W 06:00:52 10° NNW
MTI 4.4 05:54:52 10° SSW 05:57:51 33° W 06:00:50 10° NNW
Cosmos 1356 4.4 05:56:24 14° SW 05:58:50 27° WNW 06:01:54 10° N
Okean 3 Rocket 3.7 05:57:56 10° S 06:02:23 81° E 06:06:50 10° NNE
SKYMED 2 3.6 05:58:50 10° S 06:03:06 57° W 06:07:24 10° NNW
USA 238 DEB 4.1 05:56:22 10° NW 06:03:28 71° NE 06:10:37 10° SE
USA 238 4.1 05:56:28 10° NW 06:03:34 70° NE 06:10:43 10° SE
PAYLOAD A 4.2 06:00:13 10° NNE 06:04:57 71° ESE 06:09:47 10° S
Cosmos 1932 4.5 05:58:39 10° NW 06:05:05 71° WSW 06:11:21 10° SSE
CZ-2C R/B 3.4 06:00:44 10° NNE 06:05:37 53° E 06:10:36 10° S
Cosmos 2278 3.7 06:01:26 10° SSW 06:07:05 82° WNW 06:12:48 10° NNE
GP-B 3.7 06:03:41 10° SSE 06:08:03 61° E 06:12:27 10° N
Cosmos 2344 4.4 06:02:58 10° SSW 06:10:24 59° ESE 06:18:50 10° NE
Cosmos 1726 2.0 06:06:49 10° NNW 06:10:28 70° W 06:14:07 10° S
Cosmos 1674 2.8 06:07:43 10° SSW 06:11:20 48° WNW 06:14:59 10° N
Cosmos 2227 Rocket 2.9 06:07:23 10° NW 06:12:20 31° WSW 06:17:15 10° SSW
Nadezhda 3 Rocket 4.0 06:11:46 10° SSW 06:18:04 75° W 06:24:22 10° N
Cosmos 1607 4.3 06:13:11 10° NW 06:19:24 49° WSW 06:25:33 10° S
Cosmos 2228 Rocket 4.5 06:16:11 10° N 06:20:36 45° ENE 06:24:57 10° SSE
Lacrosse 5 2.9 06:16:41 10° NW 06:21:29 40° NNE 06:26:15 10° E
CZ-4 R/B 4.3 06:18:31 10° NE 06:21:38 22° E 06:24:42 10° SSE
Thor Agena Rocket 3.6 06:16:34 10° SSE 06:21:50 85° WSW 06:27:05 10° NNW
ADEOS II 3.9 06:22:09 10° NNW 06:24:08 12° NW 06:26:07 10° WNW
Cosmos 1328 Rocket 4.2 06:21:51 10° N 06:26:08 59° ENE 06:30:23 10° SSE
USA 215 4.0 06:21:37 10° ENE 06:27:41 42° N 06:33:44 10° WNW
NOSS 2-3 (D) 4.0 06:22:55 10° SW 06:27:43 83° NW 06:33:30 10° NE
Cosmos 2098 Rocket 4.5 06:21:36 10° NNW 06:29:02 67° W 06:36:19 10° S
NOAA 6 4.2 06:24:37 10° N 06:29:38 50° WNW 06:34:35 10° SW
IDEFIX/ARIANE 42P 2.6 06:24:35 10° NNE 06:29:51 79° WNW 06:35:03 10° SSW
Okean O Rocket 3.4 06:28:18 10° NNW 06:30:30 14° WNW 06:32:43 10° W
